Location: Narragansett
(41.4496°N, 71.4488°W)
Time: 04:08:17
(UTC+00:00)

Nauka - Pass Details

Date: 18 September 2021
Orbit: 417 x 423 km, 51.6° (Epoch: 19 October)

Event Time Altitude Azimuth Distance (km) Brightness Sun altitude
Rises 00:07:34 0° 235° (SW) 2,350 ? -14.9°
Reaches altitude 10° 00:09:39 10° 236° (WSW) 1,490 ? -15.3°
Maximum altitude 00:13:00 82° 324° (NW) 426 ? -15.9°
Enters shadow 00:14:52 24° 51° (NE) 907 ? -16.2°
